FW7749 Weather Reports


time (UTC)temp
C
wind
direction
speed
KPH
gust
KPH
rain 1hr
cm
rain 24hr
cm
rain mn
cm
humidity
%
barometer
mb
20260505181021 22 225 4.8 9.7 0.00 0.00 0.00 44 1016.8
20260505180029 22 0.0 0.0 0.00 0.00 0.00 46 1016.9
20260505175025 21 6.4 8.0 0.00 0.00 0.00 46 1017.0
20260505174021 22 22 17.7 20.9 0.00 0.00 0.00 46 1017.1
20260505173028 21 0.0 0.0 0.00 0.00 0.00 49 1017.3
20260505172021 21 3.2 3.2 0.00 0.00 0.00 49 1017.5
20260505171032 21 0.0 0.0 0.00 0.00 0.00 51 1017.5
20260505170026 21 0.0 0.0 0.00 0.00 0.00 50 1017.5
20260505165021 21 0.0 0.0 0.00 0.00 0.00 50 1017.7
20260505164031 20 0.0 0.0 0.00 0.00 0.00 51 1017.9
20260505163021 20 0.0 0.0 0.00 0.00 0.00 50 1018.1
20260505162021 20 0.0 0.0 0.00 0.00 0.00 51 1018.1
20260505161030 20 0.0 0.0 0.00 0.00 0.00 51 1018.2
20260505153021 19 0.0 0.0 0.00 0.00 0.00 54 1018.1
20260505152034 18 0.0 0.0 0.00 0.00 0.00 54 1018.1
20260505151021 18 0.0 0.0 0.00 0.00 0.00 55 1017.9
20260505124021 13 0.0 0.0 0.00 0.00 0.00 75 1017.9
20260505123021 12 0.0 0.0 0.00 0.00 0.00 76 1017.7
20260505122026 12 0.0 0.0 0.00 0.00 0.00 76 1017.5
20260505121041 11 0.0 0.0 0.00 0.00 0.00 75 1017.5
20260505120101 10 0.0 0.0 0.00 0.00 0.00 75 1017.4
20260505115025 10 0.0 0.0 0.00 0.00 0.00 75 1017.4
20260505114020 9 0.0 0.0 0.00 0.00 0.00 76 1017.2
20260505113029 9 0.0 0.0 0.00 0.00 0.00 77 1017.1
20260505112025 9 0.0 0.0 0.00 0.00 0.00 75 1017.1
20260505111021 8 0.0 0.0 0.00 0.00 0.00 75 1016.8
20260505102021 9 0.0 0.0 0.00 0.00 0.00 76 1016.8
20260505101041 10 0.0 0.0 0.00 0.00 0.00 73 1016.7
20260505100021 10 0.0 0.0 0.00 0.00 0.00 71 1016.6
20260505095020 10 0.0 0.0 0.00 0.00 0.00 71 1016.7
20260505094111 10 0.0 0.0 0.00 0.00 0.00 69 1016.8
20260505093020 10 0.0 0.0 0.00 0.00 0.00 69 1016.9
20260505092039 10 0.0 0.0 0.00 0.00 0.00 69 1016.9
20260505091025 10 0.0 0.0 0.00 0.00 0.00 69 1017.0
20260505090021 11 0.0 0.0 0.00 0.00 0.00 69 1016.9
20260505085050 11 0.0 0.0 0.00 0.00 0.00 69 1016.7
20260505084021 11 0.0 0.0 0.00 0.00 0.00 69 1016.5
20260505083102 11 0.0 0.0 0.00 0.00 0.00 68 1016.5
20260505082036 12 0.0 0.0 0.00 0.00 0.00 70 1016.4
20260505081021 12 0.0 0.0 0.00 0.00 0.00 70 1016.2
20260505080021 12 0.0 0.0 0.00 0.00 0.00 69 1016.2
20260505075040 12 0.0 0.0 0.00 0.00 0.00 69 1015.8
20260505074021 12 0.0 0.0 0.00 0.00 0.00 68 1016.1
20260505073020 12 0.0 0.0 0.00 0.00 0.00 66 1016.0
20260505072020 12 0.0 0.0 0.00 0.00 0.00 64 1016.0
20260505071024 12 0.0 0.0 0.00 0.00 0.00 64 1016.3
20260505070019 13 0.0 0.0 0.00 0.00 0.00 63 1016.3
20260505065040 13 0.0 0.0 0.00 0.00 0.00 63 1016.3
20260505064023 13 0.0 0.0 0.00 0.00 0.00 62 1016.2
20260505063020 13 0.0 0.0 0.00 0.00 0.00 62 1016.2
20260505062020 13 0.0 0.0 0.00 0.00 0.00 62 1016.3
20260505061022 13 0.0 0.0 0.00 0.00 0.00 61 1016.2
20260505060101 14 0.0 0.0 0.00 0.00 0.00 60 1016.1
20260505055047 14 0.0 0.0 0.00 0.00 0.00 59 1016.0
20260505054020 14 0.0 0.0 0.00 0.00 0.00 58 1016.1
20260505053020 15 0.0 0.0 0.00 0.00 0.00 57 1016.1
20260505052026 15 0.0 0.0 0.00 0.00 0.00 58 1016.0
20260505051040 15 0.0 0.0 0.00 0.00 0.00 58 1016.1
20260505041020 17 0.0 0.0 0.00 0.00 0.00 48 1015.6
20260505040028 17 0.0 0.0 0.00 0.00 0.00 46 1015.5
20260505035020 18 0.0 0.0 0.00 0.00 0.00 45 1015.6
20260505034032 18 0.0 0.0 0.00 0.00 0.00 45 1015.7
20260505033040 18 0.0 0.0 0.00 0.00 0.00 45 1015.7
20260505032020 18 0.0 0.0 0.00 0.00 0.00 45 1015.7
20260505031031 18 0.0 0.0 0.00 0.00 0.00 45 1015.8
20260505030020 18 0.0 0.0 0.00 0.00 0.00 45 1015.8
20260505025020 18 310 3.2 3.2 0.00 0.00 0.00 44 1015.8
20260505024120 18 0.0 0.0 0.00 0.00 0.00 45 1015.6
20260505023020 19 31 1.6 3.2 0.00 0.00 0.00 44 1015.9
20260505022035 19 0.0 0.0 0.00 0.00 0.00 44 1015.7
20260505021020 19 0.0 3.2 0.00 0.00 0.00 45 1015.8
20260505020020 19 0.0 1.6 0.00 0.00 0.00 46 1015.7
20260505015020 20 324 1.6 6.4 0.00 0.00 0.00 46 1015.5
20260505014020 20 356 0.0 3.2 0.00 0.00 0.00 45 1015.6
20260505013022 20 0.0 0.0 0.00 0.00 0.00 46 1015.4
20260505012020 20 338 1.6 3.2 0.00 0.00 0.00 45 1015.3
20260505011020 20 0.0 0.0 0.00 0.00 0.00 45 1015.1
20260505010020 20 0.0 0.0 0.00 0.00 0.00 46 1014.8
20260505005020 20 0.0 0.0 0.00 0.00 0.00 45 1014.8
20260505004025 21 0.0 0.0 0.00 0.00 0.00 45 1014.7
20260505003019 21 333 1.6 1.6 0.00 0.00 0.00 44 1014.7
20260505002040 21 0.0 0.0 0.00 0.00 0.00 44 1014.6
20260505001024 21 0.0 0.0 0.00 0.00 0.00 44 1014.5
20260505000020 21 0.0 0.0 0.00 0.00 0.00 44 1014.5
20260504235020 21 0.0 0.0 0.00 0.00 0.00 45 1014.3
20260504234043 22 0.0 0.0 0.00 0.00 0.00 44 1014.4
20260504233020 22 0.0 0.0 0.00 0.00 0.00 43 1014.5
20260504232048 22 0.0 0.0 0.00 0.00 0.00 43 1014.2
20260504231040 22 0.0 0.0 0.00 0.00 0.00 42 1014.5
20260504230020 22 0.0 0.0 0.00 0.00 0.00 42 1014.3
20260504225107 22 0.0 0.0 0.00 0.00 0.00 41 1014.3
20260504224020 23 0.0 0.0 0.00 0.00 0.00 41 1014.4
20260504223031 23 0.0 0.0 0.00 0.00 0.00 41 1014.4
20260504222025 23 0.0 0.0 0.00 0.00 0.00 41 1014.5
20260504221020 23 0.0 0.0 0.00 0.00 0.00 40 1014.6
20260504220030 23 0.0 0.0 0.00 0.00 0.00 40 1014.6
20260504215020 24 0.0 0.0 0.00 0.00 0.00 40 1014.7
20260504214020 25 0.0 0.0 0.00 0.00 0.00 39 1014.7
20260504213120 25 0.0 0.0 0.00 0.00 0.00 40 1014.7
20260504212040 25 0.0 0.0 0.00 0.00 0.00 38 1014.8
20260504211033 25 0.0 0.0 0.00 0.00 0.00 39 1014.8
20260504210020 25 0.0 0.0 0.00 0.00 0.00 39 1014.9
20260504205020 25 0.0 0.0 0.00 0.00 0.00 40 1015.1
20260504204032 24 0.0 0.0 0.00 0.00 0.00 41 1015.2
20260504203020 25 0.0 0.0 0.00 0.00 0.00 43 1015.3
20260504202040 24 0.0 0.0 0.00 0.00 0.00 42 1015.4
20260504201120 24 0.0 0.0 0.00 0.00 0.00 42 1015.6
20260504200020 24 0.0 0.0 0.00 0.00 0.00 42 1015.7
20260504195039 24 0.0 0.0 0.00 0.00 0.00 44 1016.0
20260504194040 23 0.0 0.0 0.00 0.00 0.00 44 1016.0
20260504193020 23 0.0 0.0 0.00 0.00 0.00 44 1016.0
20260504192036 23 0.0 0.0 0.00 0.00 0.00 43 1016.3
20260504191020 23 0.0 0.0 0.00 0.00 0.00 43 1016.6
20260504190023 22 0.0 0.0 0.00 0.00 0.00 44 1016.6
20260504185020 22 0.0 0.0 0.00 0.00 0.00 45 1016.6
20260504184040 22 0.0 0.0 0.00 0.00 0.00 44 1016.8
20260504183022 22 0.0 0.0 0.00 0.00 0.00 45 1016.8
20260504182020 22 0.0 0.0 0.00 0.00 0.00 44 1017.0